Year,Month,Day,Hour,Minute,Value (Times are PST for temperature in C)
2013,07,25,00,00,18.90
2013,07,25,00,01,19.20
2013,07,25,00,02,19.40
2013,07,25,00,03,19.70
2013,07,25,00,04,19.90
2013,07,25,00,05,20.00
2013,07,25,00,06,20.20
2013,07,25,00,07,20.30
2013,07,25,00,08,20.40
2013,07,25,00,09,20.50
2013,07,25,00,10,20.70
2013,07,25,00,11,20.80
2013,07,25,00,12,20.80
2013,07,25,00,13,20.90
2013,07,25,00,14,21.00
2013,07,25,00,15,21.10
2013,07,25,00,16,21.10
2013,07,25,00,17,21.20
2013,07,25,00,18,21.20
2013,07,25,00,19,21.30
2013,07,25,00,20,21.30
2013,07,25,00,21,21.30
2013,07,25,00,22,21.30
2013,07,25,00,23,21.40
2013,07,25,00,24,21.40
2013,07,25,00,25,21.40
2013,07,25,00,26,21.40
2013,07,25,00,27,21.40
2013,07,25,00,28,21.40
2013,07,25,00,29,21.40
2013,07,25,00,30,21.50
2013,07,25,00,31,21.50
2013,07,25,00,32,21.50
2013,07,25,00,33,21.50
2013,07,25,00,34,21.50
2013,07,25,00,35,21.50
2013,07,25,00,36,21.50
2013,07,25,00,37,21.50
2013,07,25,00,38,21.40
2013,07,25,00,39,21.50
2013,07,25,00,40,21.50
2013,07,25,00,41,21.50
2013,07,25,00,42,21.50
2013,07,25,00,43,21.50
2013,07,25,00,44,21.50
2013,07,25,00,45,21.50
2013,07,25,00,46,21.50
2013,07,25,00,47,21.50
2013,07,25,00,48,21.50
2013,07,25,00,49,21.40
2013,07,25,00,50,21.40
2013,07,25,00,51,21.40
2013,07,25,00,52,21.40
2013,07,25,00,53,21.40
2013,07,25,00,54,21.40
2013,07,25,00,55,21.30
2013,07,25,00,56,21.30
2013,07,25,00,57,21.30
2013,07,25,00,58,21.30
2013,07,25,00,59,21.30
2013,07,25,01,00,21.30
2013,07,25,01,01,21.20
2013,07,25,01,02,21.20
2013,07,25,01,03,21.20
2013,07,25,01,04,21.20
2013,07,25,01,05,21.20
2013,07,25,01,06,21.20
2013,07,25,01,07,21.20
2013,07,25,01,08,21.20
2013,07,25,01,09,21.20
2013,07,25,01,10,21.20
2013,07,25,01,11,21.20
2013,07,25,01,12,21.20
2013,07,25,01,13,21.20
2013,07,25,01,14,21.20
2013,07,25,01,15,21.20
2013,07,25,01,16,21.20
2013,07,25,01,17,21.20
2013,07,25,01,18,21.20
2013,07,25,01,19,21.20
2013,07,25,01,20,21.20
2013,07,25,01,21,21.10
2013,07,25,01,22,21.10
2013,07,25,01,23,21.10
2013,07,25,01,24,21.10
2013,07,25,01,25,21.10
2013,07,25,01,26,21.10
2013,07,25,01,27,21.10
2013,07,25,01,28,21.10
2013,07,25,01,29,21.10
2013,07,25,01,30,21.10
2013,07,25,01,31,21.00
2013,07,25,01,32,21.00
2013,07,25,01,33,21.00
2013,07,25,01,34,21.00
2013,07,25,01,35,21.10
2013,07,25,01,36,21.10
2013,07,25,01,37,21.10
2013,07,25,01,38,21.10
2013,07,25,01,39,21.10
2013,07,25,01,40,21.10
2013,07,25,01,41,21.00
2013,07,25,01,42,21.00
2013,07,25,01,43,21.00
2013,07,25,01,44,21.00
2013,07,25,01,45,20.90
2013,07,25,01,46,20.90
2013,07,25,01,47,20.90
2013,07,25,01,48,20.90
2013,07,25,01,49,20.80
2013,07,25,01,50,20.80
2013,07,25,01,51,20.80
2013,07,25,01,52,20.80
2013,07,25,01,53,20.80
2013,07,25,01,54,20.80
2013,07,25,01,55,20.80
2013,07,25,01,56,20.80
2013,07,25,01,57,20.70
2013,07,25,01,58,20.70
2013,07,25,01,59,20.70
2013,07,25,02,00,20.70
2013,07,25,02,01,20.70
2013,07,25,02,02,20.60
2013,07,25,02,03,20.60
2013,07,25,02,04,20.60
2013,07,25,02,05,20.60
2013,07,25,02,06,20.60
2013,07,25,02,07,20.60
2013,07,25,02,08,20.50
2013,07,25,02,09,20.50
2013,07,25,02,10,20.40
2013,07,25,02,11,20.40
2013,07,25,02,12,20.40
2013,07,25,02,13,20.40
2013,07,25,02,14,20.40
2013,07,25,02,15,20.40
2013,07,25,02,16,20.40
2013,07,25,02,17,20.40
2013,07,25,02,18,20.40
2013,07,25,02,19,20.40
2013,07,25,02,20,20.40
2013,07,25,02,21,20.40
2013,07,25,02,22,20.30
2013,07,25,02,23,20.30
2013,07,25,02,24,20.30
2013,07,25,02,25,20.30
2013,07,25,02,26,20.30
2013,07,25,02,27,20.30
2013,07,25,02,28,20.30
2013,07,25,02,29,20.30
2013,07,25,02,30,20.30
2013,07,25,02,31,20.30
2013,07,25,02,32,20.30
2013,07,25,02,33,20.30
2013,07,25,02,34,20.20
2013,07,25,02,35,20.20
2013,07,25,02,36,20.20
2013,07,25,02,37,20.20
2013,07,25,02,38,20.10
2013,07,25,02,39,20.10
2013,07,25,02,40,20.20
2013,07,25,02,41,20.20
2013,07,25,02,42,20.20
2013,07,25,02,43,20.20
2013,07,25,02,44,20.20
2013,07,25,02,45,20.20
2013,07,25,02,46,20.10
2013,07,25,02,47,20.10
2013,07,25,02,48,20.00
2013,07,25,02,49,20.00
2013,07,25,02,50,19.90
2013,07,25,02,51,19.90
2013,07,25,02,52,19.80
2013,07,25,02,53,19.80
2013,07,25,02,54,19.80
2013,07,25,02,55,19.80
2013,07,25,02,56,19.80
2013,07,25,02,57,19.80
2013,07,25,02,58,19.80
2013,07,25,02,59,19.80
2013,07,25,03,00,19.80
2013,07,25,03,01,19.80
2013,07,25,03,02,19.80
2013,07,25,03,03,19.80
2013,07,25,03,04,19.80
2013,07,25,03,05,19.80
2013,07,25,03,06,19.80
2013,07,25,03,07,19.80
2013,07,25,03,08,19.80
2013,07,25,03,09,19.80
2013,07,25,03,10,19.80
2013,07,25,03,11,19.80
2013,07,25,03,12,19.80
2013,07,25,03,13,19.80
2013,07,25,03,14,19.80
2013,07,25,03,15,19.80
2013,07,25,03,16,19.80
2013,07,25,03,17,19.80
2013,07,25,03,18,19.80
2013,07,25,03,19,19.80
2013,07,25,03,20,19.80
2013,07,25,03,21,19.90
2013,07,25,03,22,19.90
2013,07,25,03,23,19.90
2013,07,25,03,24,19.90
2013,07,25,03,25,19.90
2013,07,25,03,26,19.90
2013,07,25,03,27,19.80
2013,07,25,03,28,19.80
2013,07,25,03,29,19.80
2013,07,25,03,30,19.80
2013,07,25,03,31,19.80
2013,07,25,03,32,19.80
2013,07,25,03,33,19.80
2013,07,25,03,34,19.70
2013,07,25,03,35,19.70
2013,07,25,03,36,19.60
2013,07,25,03,37,19.60
2013,07,25,03,38,19.50
2013,07,25,03,39,19.40
2013,07,25,03,40,19.40
2013,07,25,03,41,19.30
2013,07,25,03,42,19.30
2013,07,25,03,43,19.20
2013,07,25,03,44,19.20
2013,07,25,03,45,19.10
2013,07,25,03,46,19.10
2013,07,25,03,47,19.10
2013,07,25,03,48,19.00
2013,07,25,03,49,19.00
2013,07,25,03,50,18.90
2013,07,25,03,51,18.90
2013,07,25,03,52,18.90
2013,07,25,03,53,18.80
2013,07,25,03,54,18.80
2013,07,25,03,55,18.80
2013,07,25,03,56,18.80
2013,07,25,03,57,18.80
2013,07,25,03,58,18.70
2013,07,25,03,59,18.70
2013,07,25,04,00,18.70
2013,07,25,04,01,18.70
2013,07,25,04,02,18.60
2013,07,25,04,03,18.60
2013,07,25,04,04,18.60
2013,07,25,04,05,18.60
2013,07,25,04,06,18.50
2013,07,25,04,07,18.50
2013,07,25,04,08,18.50
2013,07,25,04,09,18.50
2013,07,25,04,10,18.40
2013,07,25,04,11,18.40
2013,07,25,04,12,18.40
2013,07,25,04,13,18.30
2013,07,25,04,14,18.30
2013,07,25,04,15,18.30
2013,07,25,04,16,18.20
2013,07,25,04,17,18.20
2013,07,25,04,18,18.10
2013,07,25,04,19,18.10
2013,07,25,04,20,18.00
2013,07,25,04,21,18.00
2013,07,25,04,22,17.90
2013,07,25,04,23,17.90
2013,07,25,04,24,17.80
2013,07,25,04,25,17.80
2013,07,25,04,26,17.80
2013,07,25,04,27,17.70
2013,07,25,04,28,17.70
2013,07,25,04,29,17.70
2013,07,25,04,30,17.70
2013,07,25,04,31,17.60
2013,07,25,04,32,17.60
2013,07,25,04,33,17.60
2013,07,25,04,34,17.50
2013,07,25,04,35,17.50
2013,07,25,04,36,17.50
2013,07,25,04,37,17.40
2013,07,25,04,38,17.40
2013,07,25,04,39,17.40
2013,07,25,04,40,17.30
2013,07,25,04,41,17.30
2013,07,25,04,42,17.20
2013,07,25,04,43,17.20
2013,07,25,04,44,17.20
2013,07,25,04,45,17.20
2013,07,25,04,46,17.20
2013,07,25,04,47,17.10
2013,07,25,04,48,17.10
2013,07,25,04,49,17.10
2013,07,25,04,50,17.10
2013,07,25,04,51,17.00
2013,07,25,04,52,17.00
2013,07,25,04,53,17.00
2013,07,25,04,54,16.90
2013,07,25,04,55,16.90
2013,07,25,04,56,16.90
2013,07,25,04,57,16.90
2013,07,25,04,58,16.90
2013,07,25,04,59,16.90
2013,07,25,05,00,16.90
2013,07,25,05,01,16.90
2013,07,25,05,02,16.90
2013,07,25,05,03,16.90
2013,07,25,05,04,16.90
2013,07,25,05,05,16.80
2013,07,25,05,06,16.80
2013,07,25,05,07,16.80
2013,07,25,05,08,16.80
2013,07,25,05,09,16.80
2013,07,25,05,10,16.80
2013,07,25,05,11,16.80
2013,07,25,05,12,16.80
2013,07,25,05,13,16.80
2013,07,25,05,14,16.80
2013,07,25,05,15,16.80
2013,07,25,05,16,16.80
2013,07,25,05,17,16.80
2013,07,25,05,18,16.80
2013,07,25,05,19,16.80
2013,07,25,05,20,16.80
2013,07,25,05,21,16.70
2013,07,25,05,22,16.70
2013,07,25,05,23,16.70
2013,07,25,05,24,16.80
2013,07,25,05,25,16.80
2013,07,25,05,26,16.80
2013,07,25,05,27,16.80
2013,07,25,05,28,16.80
2013,07,25,05,29,16.80
2013,07,25,05,30,16.90
2013,07,25,05,31,16.90
2013,07,25,05,32,16.90
2013,07,25,05,33,16.90
2013,07,25,05,34,16.90
2013,07,25,05,35,16.90
2013,07,25,05,36,16.90
2013,07,25,05,37,16.90
2013,07,25,05,38,16.80
2013,07,25,05,39,16.80
2013,07,25,05,40,16.80
2013,07,25,05,41,16.80
2013,07,25,05,42,16.70
2013,07,25,05,43,16.70
2013,07,25,05,44,16.70
2013,07,25,05,45,16.60
2013,07,25,05,46,16.60
2013,07,25,05,47,16.60
2013,07,25,05,48,16.60
2013,07,25,05,49,16.60
2013,07,25,05,50,16.50
2013,07,25,05,51,16.50
2013,07,25,05,52,16.50
2013,07,25,05,53,16.50
2013,07,25,05,54,16.50
2013,07,25,05,55,16.50
2013,07,25,05,56,16.50
2013,07,25,05,57,16.60
2013,07,25,05,58,16.60
2013,07,25,05,59,16.60
2013,07,25,06,00,16.60
2013,07,25,06,01,16.60
2013,07,25,06,02,16.70
2013,07,25,06,03,16.70
2013,07,25,06,04,16.70
2013,07,25,06,05,16.70
2013,07,25,06,06,16.80
2013,07,25,06,07,16.80
2013,07,25,06,08,16.80
2013,07,25,06,09,16.90
2013,07,25,06,10,16.90
2013,07,25,06,11,17.00
2013,07,25,06,12,17.00
2013,07,25,06,13,17.10
2013,07,25,06,14,17.20
2013,07,25,06,15,17.30
2013,07,25,06,16,17.30
2013,07,25,06,17,17.40
2013,07,25,06,18,17.40
2013,07,25,06,19,17.50
2013,07,25,06,20,17.60
2013,07,25,06,21,17.60
2013,07,25,06,22,17.70
2013,07,25,06,23,17.70
2013,07,25,06,24,17.80
2013,07,25,06,25,17.80
2013,07,25,06,26,17.80
2013,07,25,06,27,17.80
2013,07,25,06,28,17.90
2013,07,25,06,29,17.90
2013,07,25,06,30,17.90
2013,07,25,06,31,17.90
2013,07,25,06,32,17.90
2013,07,25,06,33,18.00
2013,07,25,06,34,18.00
2013,07,25,06,35,18.00
2013,07,25,06,36,18.00
2013,07,25,06,37,18.00
2013,07,25,06,38,18.00
2013,07,25,06,39,18.00
2013,07,25,06,40,18.00
2013,07,25,06,41,18.00
2013,07,25,06,42,18.10
2013,07,25,06,43,18.10
2013,07,25,06,44,18.10
2013,07,25,06,45,18.10
2013,07,25,06,46,18.10
2013,07,25,06,47,18.10
2013,07,25,06,48,18.10
2013,07,25,06,49,18.10
2013,07,25,06,50,18.10
2013,07,25,06,51,18.10
2013,07,25,06,52,18.10
2013,07,25,06,53,18.10
2013,07,25,06,54,18.10
2013,07,25,06,55,18.00
2013,07,25,06,56,18.00
2013,07,25,06,57,18.00
2013,07,25,06,58,18.00
2013,07,25,06,59,18.00
2013,07,25,07,00,18.00
2013,07,25,07,01,18.00
2013,07,25,07,02,18.00
2013,07,25,07,03,18.00
2013,07,25,07,04,18.00
2013,07,25,07,05,18.00
2013,07,25,07,06,18.10
2013,07,25,07,07,18.10
2013,07,25,07,08,18.10
2013,07,25,07,09,18.10
2013,07,25,07,10,18.10
2013,07,25,07,11,18.10
2013,07,25,07,12,18.10
2013,07,25,07,13,18.10
2013,07,25,07,14,18.10
2013,07,25,07,15,18.20
2013,07,25,07,16,18.20
2013,07,25,07,17,18.20
2013,07,25,07,18,18.20
2013,07,25,07,19,18.20
2013,07,25,07,20,18.20
2013,07,25,07,21,18.30
2013,07,25,07,22,18.30
2013,07,25,07,23,18.30
2013,07,25,07,24,18.30
2013,07,25,07,25,18.30
2013,07,25,07,26,18.30
2013,07,25,07,27,18.30
2013,07,25,07,28,18.30
2013,07,25,07,29,18.20
2013,07,25,07,30,18.30
2013,07,25,07,31,18.30
2013,07,25,07,32,18.30
2013,07,25,07,33,18.30
2013,07,25,07,34,18.30
2013,07,25,07,35,18.40
2013,07,25,07,36,18.40
2013,07,25,07,37,18.40
2013,07,25,07,38,18.40
2013,07,25,07,39,18.50
2013,07,25,07,40,18.50
2013,07,25,07,41,18.50
2013,07,25,07,42,18.60
2013,07,25,07,43,18.60
2013,07,25,07,44,18.60
2013,07,25,07,45,18.60
2013,07,25,07,46,18.70
2013,07,25,07,47,18.70
2013,07,25,07,48,18.70
2013,07,25,07,49,18.70
2013,07,25,07,50,18.80
2013,07,25,07,51,18.80
2013,07,25,07,52,18.80
2013,07,25,07,53,18.80
2013,07,25,07,54,18.80
2013,07,25,07,55,18.80
2013,07,25,07,56,18.90
2013,07,25,07,57,18.90
2013,07,25,07,58,19.00
2013,07,25,07,59,19.00
2013,07,25,08,00,19.10
2013,07,25,08,01,19.10
2013,07,25,08,02,19.10
2013,07,25,08,03,19.10
2013,07,25,08,04,19.20
2013,07,25,08,05,19.20
2013,07,25,08,06,19.20
2013,07,25,08,07,19.30
2013,07,25,08,08,19.30
2013,07,25,08,09,19.30
2013,07,25,08,10,19.30
2013,07,25,08,11,19.40
2013,07,25,08,12,19.40
2013,07,25,08,13,19.50
2013,07,25,08,14,19.50
2013,07,25,08,15,19.50
2013,07,25,08,16,19.50
2013,07,25,08,17,19.40
2013,07,25,08,18,19.40
2013,07,25,08,19,19.30
2013,07,25,08,20,19.30
2013,07,25,08,21,19.30
2013,07,25,08,22,19.30
2013,07,25,08,23,19.30
2013,07,25,08,24,19.30
2013,07,25,08,25,19.30
2013,07,25,08,26,19.30
2013,07,25,08,27,19.30
2013,07,25,08,28,19.30
2013,07,25,08,29,19.30
2013,07,25,08,30,19.30
2013,07,25,08,31,19.30
2013,07,25,08,32,19.30
2013,07,25,08,33,19.40
2013,07,25,08,34,19.40
2013,07,25,08,35,19.40
2013,07,25,08,36,19.40
2013,07,25,08,37,19.40
2013,07,25,08,38,19.50
2013,07,25,08,39,19.50
2013,07,25,08,40,19.60
2013,07,25,08,41,19.60
2013,07,25,08,42,19.60
2013,07,25,08,43,19.60
2013,07,25,08,44,19.70
2013,07,25,08,45,19.70
2013,07,25,08,46,19.80
2013,07,25,08,47,19.80
2013,07,25,08,48,19.80
2013,07,25,08,49,19.80
2013,07,25,08,50,19.80
2013,07,25,08,51,19.80
2013,07,25,08,52,19.90
2013,07,25,08,53,19.90
2013,07,25,08,54,19.90
2013,07,25,08,55,20.00
2013,07,25,08,56,20.10
2013,07,25,08,57,20.10
2013,07,25,08,58,20.20
2013,07,25,08,59,20.10
2013,07,25,09,00,20.10
2013,07,25,09,01,20.10
2013,07,25,09,02,20.10
2013,07,25,09,03,20.10
2013,07,25,09,04,20.10
2013,07,25,09,05,20.10
2013,07,25,09,06,20.10
2013,07,25,09,07,20.10
2013,07,25,09,08,20.10
2013,07,25,09,09,20.00
2013,07,25,09,10,20.10
2013,07,25,09,11,20.10
2013,07,25,09,12,20.20
2013,07,25,09,13,20.20
2013,07,25,09,14,20.20
2013,07,25,09,15,20.20
2013,07,25,09,16,20.20
2013,07,25,09,17,20.30
2013,07,25,09,18,20.30
2013,07,25,09,19,20.40
2013,07,25,09,20,20.40
2013,07,25,09,21,20.40
2013,07,25,09,22,20.40
2013,07,25,09,23,20.40
2013,07,25,09,24,20.30
2013,07,25,09,25,20.30
2013,07,25,09,26,20.30
2013,07,25,09,27,20.30
2013,07,25,09,28,20.30
2013,07,25,09,29,20.40
2013,07,25,09,30,20.40
2013,07,25,09,31,20.40
2013,07,25,09,32,20.40
2013,07,25,09,33,20.50
2013,07,25,09,34,20.40
2013,07,25,09,35,20.40
2013,07,25,09,36,20.50
2013,07,25,09,37,20.50
2013,07,25,09,38,20.60
2013,07,25,09,39,20.60
2013,07,25,09,40,20.70
2013,07,25,09,41,20.70
2013,07,25,09,42,20.80
2013,07,25,09,43,20.80
2013,07,25,09,44,20.80
2013,07,25,09,45,20.80
2013,07,25,09,46,20.90
2013,07,25,09,47,20.90
2013,07,25,09,48,20.90
2013,07,25,09,49,20.90
2013,07,25,09,50,20.80
2013,07,25,09,51,20.80
2013,07,25,09,52,20.80
2013,07,25,09,53,20.80
2013,07,25,09,54,20.80
2013,07,25,09,55,20.80
2013,07,25,09,56,20.80
2013,07,25,09,57,20.90
2013,07,25,09,58,21.00
2013,07,25,09,59,21.00
2013,07,25,10,00,21.00
2013,07,25,10,01,21.00
2013,07,25,10,02,21.00
2013,07,25,10,03,21.00
2013,07,25,10,04,20.90
2013,07,25,10,05,21.00
2013,07,25,10,06,21.00
2013,07,25,10,07,21.10
2013,07,25,10,08,21.10
2013,07,25,10,09,21.10
2013,07,25,10,10,21.20
2013,07,25,10,11,21.20
2013,07,25,10,12,21.20
2013,07,25,10,13,21.20
2013,07,25,10,14,21.20
2013,07,25,10,15,21.20
2013,07,25,10,16,21.20
2013,07,25,10,17,21.20
2013,07,25,10,18,21.20
2013,07,25,10,19,21.10
2013,07,25,10,20,21.20
2013,07,25,10,21,21.20
2013,07,25,10,22,21.20
2013,07,25,10,23,21.30
2013,07,25,10,24,21.30
2013,07,25,10,25,21.20
2013,07,25,10,26,21.10
2013,07,25,10,27,21.00
2013,07,25,10,28,20.90
2013,07,25,10,29,20.90
2013,07,25,10,30,20.80
2013,07,25,10,31,20.80
2013,07,25,10,32,20.80
2013,07,25,10,33,20.90
2013,07,25,10,34,20.90
2013,07,25,10,35,20.90
2013,07,25,10,36,20.90
2013,07,25,10,37,20.90
2013,07,25,10,38,20.90
2013,07,25,10,39,20.90
2013,07,25,10,40,21.00
2013,07,25,10,41,21.00
2013,07,25,10,42,21.00
2013,07,25,10,43,21.00
2013,07,25,10,44,21.10
2013,07,25,10,45,21.10
2013,07,25,10,46,21.00
2013,07,25,10,47,21.00
2013,07,25,10,48,21.00
2013,07,25,10,49,21.00
2013,07,25,10,50,21.00
2013,07,25,10,51,21.10
2013,07,25,10,52,21.10
2013,07,25,10,53,21.10
2013,07,25,10,54,21.20
2013,07,25,10,55,21.20
2013,07,25,10,56,21.20
2013,07,25,10,57,21.20
2013,07,25,10,58,21.20
2013,07,25,10,59,21.20
2013,07,25,11,00,21.20
2013,07,25,11,01,21.20
2013,07,25,11,02,21.10
2013,07,25,11,03,21.10
2013,07,25,11,04,21.10
2013,07,25,11,05,21.20
2013,07,25,11,06,21.30
2013,07,25,11,07,21.30
2013,07,25,11,08,21.40
2013,07,25,11,09,21.40
2013,07,25,11,10,21.50
2013,07,25,11,11,21.50
2013,07,25,11,12,21.60
2013,07,25,11,13,21.60
2013,07,25,11,14,21.60
2013,07,25,11,15,21.60
2013,07,25,11,16,21.60
2013,07,25,11,17,21.70
2013,07,25,11,18,21.70
2013,07,25,11,19,21.70
2013,07,25,11,20,21.70
2013,07,25,11,21,21.70
2013,07,25,11,22,21.70
2013,07,25,11,23,21.70
2013,07,25,11,24,21.70
2013,07,25,11,25,21.70
2013,07,25,11,26,21.70
2013,07,25,11,27,21.70
2013,07,25,11,28,21.70
2013,07,25,11,29,21.70
2013,07,25,11,30,21.70
2013,07,25,11,31,21.80
2013,07,25,11,32,21.80
2013,07,25,11,33,21.90
2013,07,25,11,34,21.90
2013,07,25,11,35,22.00
2013,07,25,11,36,22.10
2013,07,25,11,37,22.10
2013,07,25,11,38,22.20
2013,07,25,11,39,22.20
2013,07,25,11,40,22.20
2013,07,25,11,41,22.30
2013,07,25,11,42,22.30
2013,07,25,11,43,22.40
2013,07,25,11,44,22.50
2013,07,25,11,45,22.60
2013,07,25,11,46,22.70
2013,07,25,11,47,22.70
2013,07,25,11,48,22.70
2013,07,25,11,49,22.60
2013,07,25,11,50,22.60
2013,07,25,11,51,22.50
2013,07,25,11,52,22.50
2013,07,25,11,53,22.40
2013,07,25,11,54,22.40
2013,07,25,11,55,22.40
2013,07,25,11,56,22.40
2013,07,25,11,57,22.40
2013,07,25,11,58,22.40
2013,07,25,11,59,22.50
2013,07,25,12,00,22.50
2013,07,25,12,01,22.70
2013,07,25,12,02,22.80
2013,07,25,12,03,22.80
2013,07,25,12,04,22.80
2013,07,25,12,05,22.80
2013,07,25,12,06,22.80
2013,07,25,12,07,22.80
2013,07,25,12,08,22.80
2013,07,25,12,09,22.90
2013,07,25,12,10,22.90
2013,07,25,12,11,22.90
2013,07,25,12,12,23.00
2013,07,25,12,13,23.10
2013,07,25,12,14,23.20
2013,07,25,12,15,23.20
2013,07,25,12,16,23.20
2013,07,25,12,17,23.20
2013,07,25,12,18,23.30
2013,07,25,12,19,23.30
2013,07,25,12,20,23.40
2013,07,25,12,21,23.50
2013,07,25,12,22,23.60
2013,07,25,12,23,23.60
2013,07,25,12,24,23.70
2013,07,25,12,25,23.70
2013,07,25,12,26,23.80
2013,07,25,12,27,23.90
2013,07,25,12,28,24.00
2013,07,25,12,29,24.10
2013,07,25,12,30,24.10
2013,07,25,12,31,24.20
2013,07,25,12,32,24.30
2013,07,25,12,33,24.30
2013,07,25,12,34,24.40
2013,07,25,12,35,24.40
2013,07,25,12,36,24.40
2013,07,25,12,37,24.40
2013,07,25,12,38,24.30
2013,07,25,12,39,24.30
2013,07,25,12,40,24.20
2013,07,25,12,41,24.20
2013,07,25,12,42,24.20
2013,07,25,12,43,24.20
2013,07,25,12,44,24.10
2013,07,25,12,45,24.00
2013,07,25,12,46,23.90
2013,07,25,12,47,23.90
2013,07,25,12,48,23.90
2013,07,25,12,49,23.90
2013,07,25,12,50,23.90
2013,07,25,12,51,23.90
2013,07,25,12,52,23.90
2013,07,25,12,53,24.00
2013,07,25,12,54,24.10
2013,07,25,12,55,24.10
2013,07,25,12,56,24.10
2013,07,25,12,57,24.20
2013,07,25,12,58,24.20
2013,07,25,12,59,24.20
2013,07,25,13,00,24.20
2013,07,25,13,01,24.30
2013,07,25,13,02,24.30
2013,07,25,13,03,24.40
2013,07,25,13,04,24.50
2013,07,25,13,05,24.50
2013,07,25,13,06,24.60
2013,07,25,13,07,24.50
2013,07,25,13,08,24.40
2013,07,25,13,09,24.40
2013,07,25,13,10,24.40
2013,07,25,13,11,24.40
2013,07,25,13,12,24.40
2013,07,25,13,13,24.40
2013,07,25,13,14,24.40
2013,07,25,13,15,24.40
2013,07,25,13,16,24.50
2013,07,25,13,17,24.50
2013,07,25,13,18,24.50
2013,07,25,13,19,24.50
2013,07,25,13,20,24.50
2013,07,25,13,21,24.60
2013,07,25,13,22,24.60
2013,07,25,13,23,24.70
2013,07,25,13,24,24.80
2013,07,25,13,25,24.80
2013,07,25,13,26,24.80
2013,07,25,13,27,24.80
2013,07,25,13,28,24.80
2013,07,25,13,29,24.80
2013,07,25,13,30,24.80
2013,07,25,13,31,24.80
2013,07,25,13,32,24.80
2013,07,25,13,33,24.70
2013,07,25,13,34,24.70
2013,07,25,13,35,24.70
2013,07,25,13,36,24.70
2013,07,25,13,37,24.80
2013,07,25,13,38,25.00
2013,07,25,13,39,25.00
2013,07,25,13,40,25.00
2013,07,25,13,41,25.00
2013,07,25,13,42,25.00
2013,07,25,13,43,25.10
2013,07,25,13,44,25.10
2013,07,25,13,45,25.10
2013,07,25,13,46,25.10
2013,07,25,13,47,25.10
2013,07,25,13,48,25.10
2013,07,25,13,49,25.10
2013,07,25,13,50,25.10
2013,07,25,13,51,25.10
2013,07,25,13,52,25.10
2013,07,25,13,53,25.10
2013,07,25,13,54,25.30
2013,07,25,13,55,25.40
2013,07,25,13,56,25.40
2013,07,25,13,57,25.50
2013,07,25,13,58,25.40
2013,07,25,13,59,25.40
2013,07,25,14,00,25.40
2013,07,25,14,01,25.40
2013,07,25,14,02,25.40
2013,07,25,14,03,25.40
2013,07,25,14,04,25.40
2013,07,25,14,05,25.30
2013,07,25,14,06,25.30
2013,07,25,14,07,25.30
2013,07,25,14,08,25.40
2013,07,25,14,09,25.50
2013,07,25,14,10,25.50
2013,07,25,14,11,25.50
2013,07,25,14,12,25.40
2013,07,25,14,13,25.40
2013,07,25,14,14,25.50
2013,07,25,14,15,25.50
2013,07,25,14,16,25.60
2013,07,25,14,17,25.60
2013,07,25,14,18,25.60
2013,07,25,14,19,25.50
2013,07,25,14,20,25.60
2013,07,25,14,21,25.50
2013,07,25,14,22,25.50
2013,07,25,14,23,25.40
2013,07,25,14,24,25.30
2013,07,25,14,25,25.30
2013,07,25,14,26,25.20
2013,07,25,14,27,25.20
2013,07,25,14,28,25.10
2013,07,25,14,29,25.10
2013,07,25,14,30,25.10
2013,07,25,14,31,25.20
2013,07,25,14,32,25.20
2013,07,25,14,33,25.30
2013,07,25,14,34,25.30
2013,07,25,14,35,25.30
2013,07,25,14,36,25.30
2013,07,25,14,37,25.40
2013,07,25,14,38,25.50
2013,07,25,14,39,25.60
2013,07,25,14,40,25.70
2013,07,25,14,41,25.70
2013,07,25,14,42,25.70
2013,07,25,14,43,25.70
2013,07,25,14,44,25.60
2013,07,25,14,45,25.50
2013,07,25,14,46,25.50
2013,07,25,14,47,25.50
2013,07,25,14,48,25.50
2013,07,25,14,49,25.50
2013,07,25,14,50,25.50
2013,07,25,14,51,25.50
2013,07,25,14,52,25.50
2013,07,25,14,53,25.60
2013,07,25,14,54,25.60
2013,07,25,14,55,25.70
2013,07,25,14,56,25.70
2013,07,25,14,57,25.70
2013,07,25,14,58,25.80
2013,07,25,14,59,25.80
2013,07,25,15,00,25.80
2013,07,25,15,01,25.80
2013,07,25,15,02,25.80
2013,07,25,15,03,25.80
2013,07,25,15,04,25.70
2013,07,25,15,05,25.70
2013,07,25,15,06,25.60
2013,07,25,15,07,25.60
2013,07,25,15,08,25.50
2013,07,25,15,09,25.50
2013,07,25,15,10,25.50
2013,07,25,15,11,25.50
2013,07,25,15,12,25.60
2013,07,25,15,13,25.60
2013,07,25,15,14,25.60
2013,07,25,15,15,25.60
2013,07,25,15,16,25.70
2013,07,25,15,17,25.70
2013,07,25,15,18,25.80
2013,07,25,15,19,25.80
2013,07,25,15,20,25.80
2013,07,25,15,21,25.80
2013,07,25,15,22,25.80
2013,07,25,15,23,25.80
2013,07,25,15,24,25.80
2013,07,25,15,25,25.80
2013,07,25,15,26,25.90
2013,07,25,15,27,26.00
2013,07,25,15,28,26.00
2013,07,25,15,29,26.10
2013,07,25,15,30,26.10
2013,07,25,15,31,26.10
2013,07,25,15,32,26.20
2013,07,25,15,33,26.20
2013,07,25,15,34,26.10
2013,07,25,15,35,26.10
2013,07,25,15,36,26.20
2013,07,25,15,37,26.20
2013,07,25,15,38,26.10
2013,07,25,15,39,26.10
2013,07,25,15,40,26.10
2013,07,25,15,41,26.10
2013,07,25,15,42,26.10
2013,07,25,15,43,26.20
2013,07,25,15,44,26.20
2013,07,25,15,45,26.30
2013,07,25,15,46,26.30
2013,07,25,15,47,26.40
2013,07,25,15,48,26.40
2013,07,25,15,49,26.40
2013,07,25,15,50,26.40
2013,07,25,15,51,26.40
2013,07,25,15,52,26.40
2013,07,25,15,53,26.40
2013,07,25,15,54,26.30
2013,07,25,15,55,26.30
2013,07,25,15,56,26.30
2013,07,25,15,57,26.20
2013,07,25,15,58,26.20
2013,07,25,15,59,26.20
2013,07,25,16,00,26.20
2013,07,25,16,01,26.20
2013,07,25,16,02,26.20
2013,07,25,16,03,26.20
2013,07,25,16,04,26.20
2013,07,25,16,05,26.20
2013,07,25,16,06,26.30
2013,07,25,16,07,26.40
2013,07,25,16,08,26.40
2013,07,25,16,09,26.50
2013,07,25,16,10,26.50
2013,07,25,16,11,26.50
2013,07,25,16,12,26.60
2013,07,25,16,13,26.60
2013,07,25,16,14,26.60
2013,07,25,16,15,26.70
2013,07,25,16,16,26.70
2013,07,25,16,17,26.70
2013,07,25,16,18,26.70
2013,07,25,16,19,26.70
2013,07,25,16,20,26.70
2013,07,25,16,21,26.70
2013,07,25,16,22,26.80
2013,07,25,16,23,26.80
2013,07,25,16,24,26.90
2013,07,25,16,25,27.00
2013,07,25,16,26,27.10
2013,07,25,16,27,27.20
2013,07,25,16,28,27.30
2013,07,25,16,29,27.40
2013,07,25,16,30,27.40
2013,07,25,16,31,27.40
2013,07,25,16,32,27.40
2013,07,25,16,33,27.30
2013,07,25,16,34,27.20
2013,07,25,16,35,27.20
2013,07,25,16,36,27.10
2013,07,25,16,37,27.10
2013,07,25,16,38,27.00
2013,07,25,16,39,27.00
2013,07,25,16,40,26.90
2013,07,25,16,41,26.90
2013,07,25,16,42,26.90
2013,07,25,16,43,26.90
2013,07,25,16,44,26.80
2013,07,25,16,45,26.80
2013,07,25,16,46,26.80
2013,07,25,16,47,26.90
2013,07,25,16,48,26.90
2013,07,25,16,49,26.90
2013,07,25,16,50,26.90
2013,07,25,16,51,26.90
2013,07,25,16,52,26.90
2013,07,25,16,53,26.90
2013,07,25,16,54,26.80
2013,07,25,16,55,26.80
2013,07,25,16,56,26.80
2013,07,25,16,57,26.70
2013,07,25,16,58,26.70
2013,07,25,16,59,26.70
2013,07,25,17,00,26.60
2013,07,25,17,01,26.60
2013,07,25,17,02,26.60
2013,07,25,17,03,26.60
2013,07,25,17,04,26.60
2013,07,25,17,05,26.60
2013,07,25,17,06,26.60
2013,07,25,17,07,26.60
2013,07,25,17,08,26.60
2013,07,25,17,09,26.60
2013,07,25,17,10,26.50
2013,07,25,17,11,26.50
2013,07,25,17,12,26.60
2013,07,25,17,13,26.60
2013,07,25,17,14,26.70
2013,07,25,17,15,26.70
2013,07,25,17,16,26.70
2013,07,25,17,17,26.70
2013,07,25,17,18,26.70
2013,07,25,17,19,26.60